Regional Weather Roundup
Issued by NWS

Home | Current Version | Previous Version | Graphics & Text | Print | Product List | Glossary On
Versions: 1 2 3 4 5 6 7 8 9 10 11 12 13 14 15 16 17 18 19 20 21 22 23 24 25 26 27 28 29 30 31 32 33 34 35 36 37 38 39 40 41 42 43 44 45 46 47 48 49 50
981
ASUS43 KDTX 091510
RWRMI
MICHIGAN HOURLY REGIONAL WEATHER ROUNDUP
NATIONAL WEATHER SERVICE DETROIT/PONTIAC MI
ISSUED BY NATIONAL WEATHER SERVICE GRAND RAPIDS MI
1000 AM EST FRI DEC 09 2016

NOTE: "FAIR" INDICATES FEW OR NO CLOUDS BELOW 12,000 FEET WITH NO
SIGNIFICANT WEATHER AND/OR OBSTRUCTION TO VISIBILITY.

MIZ047>049-052>055-059>063-066>070-074>076-081>083-091600-
SOUTHEAST LOWER MICHIGAN

CITY           SKY/WX    TMP DP  RH WIND       PRES   REMARKS
ADRIAN         CLOUDY    25  22  88 W7        30.41R WCI  17
ALMA           MOSUNNY   28  19  69 W13       30.37R WCI  18
ANN ARBOR      CLOUDY    27  24  89 SW8       30.37R WCI  19
BAD AXE        CLOUDY    28  17  64 NW7       30.32R WCI  20
DETROIT CITY   CLOUDY    29  23  78 W9        30.37R WCI  20
DETROIT        CLOUDY    29  24  82 W8        30.38R WCI  21
FLINT          SUNNY     29  19  66 W13       30.36R WCI  19
GROSSE ILE     CLOUDY    28  24  83 W8        30.37R WCI  20
HILLSDALE      LGT SNOW  23  21  93 W7        30.38R WCI  15
HOWELL         SUNNY     28  19  66 W13G18    30.35R WCI  18

CITY           SKY/WX    TMP DP  RH WIND       PRES   REMARKS
JACKSON        LGT SNOW  25  22  88 W8        30.39R WCI  16
LANSING        CLOUDY    27  17  66 NW8       30.38R WCI  19
MASON          CLOUDY    27  22  83 W8        30.38R WCI  18
MONROE         CLOUDY    28  25  89 W9        30.39R WCI  19
MT. CLEMENS    PTSUNNY   30  20  65 NW15      30.34R WCI  19
PONTIAC        PTSUNNY   27  19  72 NW12      30.34R WCI  17
PORT HOPE        N/A     28  17  63 NW13G21   30.29R WCI  17
PORT HURON     MOSUNNY   28  21  74 NW13      30.34R WCI  18
TRI CITIES     PTSUNNY   28  22  78 W13       30.36R WCI  17
YPSILANTI      CLOUDY    29  25  85 W12       30.38R WCI  19
$$
MIZ043>046-050>051-056>058-064>065-071>073-077>080-091600-
SOUTHWEST LOWER MICHIGAN

CITY           SKY/WX    TMP DP  RH WIND       PRES   REMARKS
BATTLE CREEK   LGT SNOW  27  25  92 W8        30.40R VSB 3/4 WCI  19
BENTON HARBOR  LGT SNOW  29  18  63 W13       30.45R WCI  19
BIG RAPIDS     CLOUDY    24  18  75 W9G18     30.35R WCI  15
COLDWATER      LGT SNOW  24  23  93 W8        30.40R WCI  16
HOLLAND        PTSUNNY   29  18  63 W10       30.42R WCI  20
GRAND RAPIDS   FLURRIES  27  17  66 NW9       30.40R WCI  18
KALAMAZOO      LGT SNOW  27  22  81 NW8       30.41R WCI  19
MARSHALL       LGT SNOW  25  24  93 CALM      30.39R
MOUNT PLEASANT SUNNY     28  20  72 W12       30.35R WCI  17
MUSKEGON       FLURRIES  29  14  53 NW10G20   30.41R WCI  20
STURGIS        CLOUDY    24  21  89 W8        30.41R FOG     WCI  15
$$
MIZ016>042-091600-
NORTHERN LOWER MICHIGAN

CITY           SKY/WX    TMP DP  RH WIND       PRES   REMARKS
ALPENA         FLURRIES  22  17  81 NW6       30.32R WCI  14
BEAVER ISLAND  LGT SNOW  25  19  78 NW6       30.33R WCI  18
BELLAIRE       LGT SNOW  25  22  91 CALM      30.34R VSB 3/4
CADILLAC       LGT SNOW  24  19  81 W8        30.30R WCI  15
CHARLEVOIX     CLOUDY    28  18  68 N9        30.35R WCI  19
GAYLORD        CLOUDY    21  15  78 SW5       30.28R WCI  15
HOUGHTON LAKE  FLURRIES  23  19  85 N5        30.31R WCI  17
MANISTEE       LGT SNOW  27  21  80 NW14      30.37S WCI  15
OSCODA         SUNNY     26  17  71 W7        30.32R WCI  18
PELLSTON       CLOUDY    24  13  62 N5        30.32R WCI  18
TRAVERSE CITY  MOSUNNY   25  20  81 W8        30.34R WCI  16
LUDINGTON      FLURRIES  26  14  62 W7        30.39R WCI  18
$$
MIZ007>008-015-091600-
EASTERN UPPER MICHIGAN

CITY           SKY/WX    TMP DP  RH WIND       PRES   REMARKS
KINROSS        LGT SNOW  19  14  79 NE5       30.32R WCI  13
MACKINAC ISLAN CLOUDY    21  15  78 NE6       30.31R WCI  14
NEWBERRY       LGT SNOW  20  19  93 W3        30.31R
S. S. MARIE    CLOUDY    19   8  62 N7        30.32R WCI  10
$$
MIZ004>006-011>014-085-091600-
CENTRAL UPPER MICHIGAN

CITY           SKY/WX    TMP DP  RH WIND       PRES   REMARKS
MANISTIQUE     LGT SNOW  20  19  96 NW8       30.34R WCI  10
ESCANABA       PTSUNNY   20  14  77 W9        30.38R WCI   9
MENOMINEE      MOSUNNY   20  11  68 NW8G16    30.42R WCI  10
SAWYER-GWINN   MOSUNNY   16  12  86 NW5       30.33R WCI   9
$$
MIZ001>003-009>011-084-091600-
WESTERN UPPER MICHIGAN

CITY           SKY/WX    TMP DP  RH WIND       PRES   REMARKS
IRON MOUNTAIN  PTSUNNY   17   9  70 NW13      30.36R WCI   4
HOUGHTON       LGT SNOW  19  12  74 NW16      30.35S WCI   4
COPPER HARBOR    N/A     23  15  71 NE12      30.37R WCI  12
IRONWOOD       LGT SNOW  16  10  79 W15       30.43R WCI   1
$$

ABBREVIATIONS USED IN REMARKS
   TC - TEMPERATURE IN CELSIUS
  WCI - WIND CHILL INDEX
   HX - HEAT INDEX
  VSB - VISIBILITY





USA.gov is the U.S. government's official web portal to all federal, state and local government web resources and services.